Location: Zagreb
(45.8000°N, 16.0000°E)
Time: 21:01:10
(UTC+01:00)

YUBILEINY - Visible Passes

Search period start: 25 February 2021 00:00
Search period end: 07 March 2021 00:00
Orbit: 1478 x 1508 km, 82.5° (Epoch: 25 February)

Date Brightness Start Highest point End Pass type
(mag) Time Alt. Az. Time Alt. Az. Time Alt. Az.
25 Feb ? 00:13:04 20° NW 00:13:04 20° NW 00:17:10 10° N visible
25 Feb ? 21:27:36 29° NNE 21:27:36 29° NNE 21:31:34 10° NNE visible
25 Feb ? 23:23:28 29° NNW 23:23:28 29° NNW 23:28:15 10° N visible
26 Feb ? 20:37:59 22° NE 20:37:59 22° NE 20:41:23 10° NNE visible
26 Feb ? 22:33:50 38° NNW 22:33:50 38° NNW 22:38:57 10° N visible
27 Feb ? 00:29:42 15° NW 00:29:42 15° NW 00:33:48 10° NNW visible
27 Feb ? 19:48:18 15° NE 19:48:18 15° NE 19:50:26 10° NE visible
27 Feb ? 21:44:10 41° NNE 21:44:10 41° NNE 21:49:22 10° N visible
27 Feb ? 23:40:01 25° NW 23:40:01 25° NW 23:45:29 10° N visible
28 Feb ? 20:54:26 34° NE 20:54:26 34° NE 20:59:30 10° NNE visible
28 Feb ? 22:50:18 38° NW 22:50:18 38° NW 22:56:26 10° N visible
01 Mar ? 20:04:39 24° NE 20:04:39 24° NE 20:09:10 10° NNE visible
01 Mar ? 22:00:30 53° NNW 22:00:30 53° NNW 22:07:02 10° N visible
01 Mar ? 23:56:22 18° WNW 23:56:46 18° NW 00:02:22 10° NNW visible
02 Mar ? 06:01:41 10° NNE 06:06:32 15° NE 06:11:20 10° E visible
02 Mar ? 19:14:49 14° ENE 19:14:49 14° ENE 19:17:42 10° NE visible
02 Mar ? 21:10:39 54° NE 21:10:39 54° NE 21:17:22 10° NNE visible
02 Mar ? 23:06:29 30° WNW 23:06:29 30° WNW 23:13:44 10° N visible
03 Mar ? 20:20:42 38° ENE 20:20:42 38° ENE 20:27:23 10° NNE visible
03 Mar ? 22:16:32 50° WNW 22:16:32 50° WNW 22:24:34 10° N visible
04 Mar ? 00:12:36 10° WNW 00:15:26 12° NW 00:18:15 10° NNW visible
04 Mar ? 19:30:38 23° ENE 19:30:38 23° ENE 19:36:50 10° NNE visible
04 Mar ? 21:26:26 83° NW 21:26:26 83° NW 21:35:05 10° N visible
04 Mar ? 23:22:16 19° WNW 23:24:28 21° WNW 23:30:47 10° NNW visible
05 Mar ? 05:30:27 10° NNE 05:34:09 13° NE 05:37:49 10° ENE visible
05 Mar ? 18:40:24 11° E 18:41:59 11° ENE 18:44:23 10° NE visible
05 Mar ? 20:36:12 58° ESE 20:36:44 59° E 20:45:20 10° NNE visible
05 Mar ? 22:32:00 32° W 22:34:00 35° WNW 22:41:57 10° N visible
06 Mar ? 19:45:42 31° ESE 19:47:37 34° E 19:55:13 10° NNE visible
06 Mar ? 21:41:29 46° SW 21:43:56 59° WNW 21:52:41 10° N visible
06 Mar ? 23:38:47 10° W 23:43:01 14° NW 23:47:16 10° NNW visible
